Regional Weather Roundup
Issued by NWS

Home | Current Version | Previous Version | Text Only | Print | Product List | Glossary Off
Versions: 1 2 3 4 5 6 7 8 9 10 11 12 13 14 15 16 17 18 19 20 21 22 23 24 25 26 27 28 29 30 31 32 33 34 35 36 37 38 39 40 41 42 43 44 45 46 47 48 49 50

000
ASUS43 KMKX 260400
RWRWI

WISCONSIN REGIONAL WEATHER ROUNDUP
NATIONAL WEATHER SERVICE MILWAUKEE/SULLIVAN WI
1100 PM CDT MON SEP 25 2017

NOTE: "FAIR" INDICATES FEW OR NO CLOUDS BELOW 12,000 FEET WITH NO
SIGNIFICANT WEATHER AND/OR OBSTRUCTIONS TO VISIBILITY.

WIZ001-002-006>008-014>016-023>028-260500-
NORTHWEST WISCONSIN

CITY           SKY/WX    TMP DP  RH WIND       PRES   REMARKS
SUPERIOR ARPT  CLOUDY    59  56  89 N5        29.99F
ASHLAND        CLOUDY    59  58  96 NE8       29.99F
HAYWARD        CLOUDY    58  55  90 N3        29.98F
SIREN          CLOUDY    57  55  94 N3        29.98F
CUMBERLAND     CLOUDY    55  54  94 NE5       29.97F
RICE LAKE      CLOUDY    58  57  94 CALM      29.98S
CHETEK         RAIN      60  60  98 N7        29.96F
LADYSMITH      CLOUDY    61  59  94 N6        29.98F
EAU CLAIRE     NOT AVBL
MENOMONIE      CLOUDY    61  61  99 NW3       29.94F
NEW RICHMOND   RAIN      58  56  92 CALM      29.99R
OSCEOLA        RAIN      58  58 100 CALM      30.00F
$$

WIZ003>005-009-010-017-018-260500-
NORTH CENTRAL WISCONSIN

CITY           SKY/WX    TMP DP  RH WIND       PRES   REMARKS
MANITOWISH WTR NOT AVBL
ARBOR VITAE    CLOUDY    62  61  96 NE3       29.99R
WOODRUFF       CLOUDY    62  61  96 NE3       29.99R
RHINELANDER    CLOUDY    64  64 100 CALM      29.99R
EAGLE RIVER    CLOUDY    62  62 100 E5        30.00R
LAND O LAKES   CLOUDY    61  61  98 NE3       30.01R
PHILLIPS       CLOUDY    58  58 100 NE5       29.98S
TOMAHAWK       CLOUDY    60  59  96 CALM      29.98R FOG
MEDFORD        CLOUDY    64  64  97 N5        29.96S FOG
MERRILL        CLOUDY    66  66 100 CALM      29.96F
$$

WIZ029-030-035-036-043>047-260500-
CENTRAL WISCONSIN

CITY           SKY/WX    TMP DP  RH WIND       PRES   REMARKS
WAUSAU         MOCLDY    66  65  96 CALM      29.93F
MOSINEE        MOCLDY    64  64 100 CALM      29.96F
MARSHFIELD     CLOUDY    61  59  93 SW5       29.95S
STEVENS POINT  PTCLDY    64  64 100 CALM      29.95F
WAUPACA        CLEAR     69  66  89 CALM      29.95S
WAUTOMA        PTCLDY    67  64  90 CALM      29.95R
WISC RAPIDS    RAIN      66  65  96 NW6       29.96R FOG
CAMP DOUGLAS   LGT RAIN  66  66 100 NW10      29.95R
$$

WIZ011>013-019>022-031-037>040-048>050-260500-
NORTHEAST WISCONSIN

CITY           SKY/WX    TMP DP  RH WIND       PRES   REMARKS
ANTIGO         LGT RAIN  64  64 100 CALM      29.97F
SHAWANO        PTCLDY    73  64  72 W5        29.94S
OCONTO         PTCLDY    66  62  86 CALM      29.93R
STURGEON BAY   CLEAR     72  60  66 S7        29.93F
GREEN BAY      CLEAR     67  64  90 CALM      29.93F
MANITOWOC      CLEAR     68  62  81 SE3       29.93F
APPLETON       PTCLDY    70  57  64 NW7       29.93S
CLINTONVILLE   CLOUDY    72  63  73 NW3       29.94F
OSHKOSH        CLEAR     69  61  75 CALM      29.93S
$$

WIZ032>034-041-042-053>061-260500-
SOUTHWEST WISCONSIN

CITY           SKY/WX    TMP DP  RH WIND       PRES   REMARKS
LA CROSSE      MOCLDY    69  67  93 SE6       29.93F
SPARTA         LGT RAIN  64  63  97 S6        29.98S
VIROQUA        CLOUDY    65  65 100 NW3       29.97F
BOSCOBEL       LGT RAIN  68  66  93 CALM      29.95F
PRAIRIE DU CHI HVY RAIN  67  65  93 CALM      29.96F
PLATTEVILLE    PTCLDY    69  66  90 N6        29.96S
$$

WIZ056-057-062-063-064-067-068-260500-
SOUTH CENTRAL WISCONSIN

CITY           SKY/WX    TMP DP  RH WIND       PRES   REMARKS
REEDSBURG      CLOUDY    66  66 100 W9        29.96R
BARABOO/DELLS  CLOUDY    67  63  86 CALM      29.94S
LONE ROCK      CLOUDY    69  66  90 NW6       29.95F
MINERAL POINT  PTCLDY    68  66  94 NW8       29.97R
MADISON        PTCLDY    66  63  90 CALM      29.93S
MIDDLETON      PTCLDY    66  63  89 CALM      29.95R
WATERTOWN      CLEAR     68  60  76 CALM      29.93S
MONROE         CLEAR     70  61  73 N6        29.95R
JANESVILLE     CLEAR     73  57  56 SW3       29.93R
$$

WIZ051-052-058>065-066-070>072-260500-
SOUTHEAST WISCONSIN

CITY           SKY/WX    TMP DP  RH WIND       PRES   REMARKS
MILWAUKEE      CLEAR     74  62  66 S7        29.93F
WAUKESHA       CLEAR     72  55  56 S6        29.95
MILWAUKEE/TIMM CLEAR     73  54  49 S3        29.94F
RACINE         CLEAR     74  64  71 S6        29.95F
BURLINGTON     CLEAR     65  61  87 CALM      29.94S
KENOSHA        CLEAR     73  59  61 S5        29.94F
FOND DU LAC    CLEAR     68  58  70 CALM      29.93S
SHEBOYGAN      CLEAR     66  63  90 CALM      29.93F
WEST BEND        N/A     63  61  94 CALM      29.95S
JUNEAU         CLEAR     71  59  66 SE3       29.95S
$$

LSZ147-162-260500-
LAKE SUPERIOR

STATION/POSITION TIME  TEMP    WIND        PRES    WAVE
                       AIR SEA DIR/SP/G            HT/PER
                 (UTC) (F)     (DEG/KT/KT) (MB)    (FT/S)
W MID LAKE BUOY  0250   57 56   60/ 16/ 19 1015.9F   2/ 4
DEVILS ISLAND    0300   59      80/ 21/ 23 1015.8F
SAXON HARBOR     0330   61      60/  4/  6 1014.6F
$$

LMZ867-665-643>646-260500-
LAKE MICHIGAN

STATION/POSITION TIME  TEMP    WIND        PRES    WAVE
                       AIR SEA DIR/SP/G            HT/PER
                 (UTC) (F)     (DEG/KT/KT) (MB)    (FT/S)
S GREEN BAY BUOY 0300   72 70  170/  8/ 10 1013.1
N MID LAKE BUOY  0250   68 67  150/  8/ 10 1014.3R   1
NORTHPORT PIER   0340   73     160/  3/  5 1013.2S
KEWAUNEE LAKESHO 0330   65     170/  1/  2 1012.8F
SHEBOYGAN LAKESH 0300   72     210/  5/  5 1013.3S
PORT WASHINGTON  0330   70      80/  2/  3 1014.6S
ATWATER BUOY     0209   66 61  170/  6/  6 1014.0F
MILWAUKEE LAKESH 0330   67     190/  1/  1   N/A
S MID LAKE BUOY  0250   74 71  120/  6/  6 1013.9F   0
KENOSHA   LAKESH 0300   74     180/  6/  8 1013.5
$$

TC  - TEMPERATURE IN CELSIUS
VSB - VISIBILITY IN STATUTE MILES
WCI - WIND CHILL INDEX
HX  - HEAT INDEX





USA.gov is the U.S. government's official web portal to all federal, state and local government web resources and services.